2022/05/26,74000,74000,74000,74000
2022/05/27,74000,74000,74000,74000
2022/05/30,74000,74000,74000,74000
2022/05/31,74000,74000,74000,74000
2022/06/01,74000,74000,74000,74000
2022/06/02,74000,74000,74000,74000
2022/06/03,74000,74000,74000,74000
2022/06/06,74000,74000,74000,74000
2022/06/07,76000,76000,76000,76000
2022/06/08,76000,76000,76000,76000
2022/06/09,79000,79000,79000,79000
2022/06/10,79000,79000,79000,79000
2022/06/13,79000,79000,79000,79000
2022/06/14,79000,79000,79000,79000
2022/06/15,79000,79000,79000,79000
2022/06/16,79000,79000,79000,79000
2022/06/17,79000,79000,79000,79000
2022/06/20,79000,79000,79000,79000
2022/06/21,79000,79000,79000,79000
2022/06/22,79000,79000,79000,79000
2022/06/23,79000,79000,79000,79000
2022/06/24,79000,79000,79000,79000
2022/06/27,79000,79000,79000,79000
2022/06/28,79000,79000,79000,79000
2022/06/29,79000,79000,79000,79000
2022/06/30,79000,79000,79000,79000
2022/07/01,79000,79000,79000,79000
2022/07/04,79000,79000,79000,79000
2022/07/05,79000,79000,79000,79000
2022/07/06,77000,77000,77000,77000
2022/07/07,77000,77000,77000,77000
2022/07/08,77000,77000,77000,77000
2022/07/11,77000,77000,77000,77000
2022/07/12,77000,77000,77000,77000
2022/07/13,77000,77000,77000,77000
2022/07/14,77000,77000,77000,77000
2022/07/15,77000,77000,77000,77000
2022/07/19,77000,77000,77000,77000
2022/07/20,77000,77000,77000,77000
2022/07/21,77000,77000,77000,77000
2022/07/22,77000,77000,77000,77000
2022/07/25,77000,77000,77000,77000
2022/07/26,77000,77000,77000,77000
2022/07/27,77000,77000,77000,77000
2022/07/28,77000,77000,77000,77000
2022/07/29,77000,77000,77000,77000
2022/08/01,77000,77000,77000,77000
2022/08/02,77000,77000,77000,77000
2022/08/03,77000,77000,77000,77000
2022/08/04,77000,77000,77000,77000
2022/08/05,77000,77000,77000,77000
2022/08/08,77000,77000,77000,77000
2022/08/09,77000,77000,77000,77000
2022/08/10,77000,77000,77000,77000
2022/08/12,77000,77000,77000,77000
2022/08/15,77000,77000,77000,77000
2022/08/16,76000,76000,76000,76000
2022/08/17,76000,76000,76000,76000
2022/08/18,76000,76000,76000,76000
2022/08/19,76000,76000,76000,76000
2022/08/22,76000,76000,76000,76000
2022/08/23,76000,76000,76000,76000
2022/08/24,76000,76000,76000,76000
2022/08/25,76000,76000,76000,76000
2022/08/26,76000,76000,76000,76000
2022/08/29,76000,76000,76000,76000
2022/08/30,77500,77500,77500,77500
2022/08/31,77500,77500,77500,77500
2022/09/01,77500,77500,77500,77500
2022/09/02,77500,77500,77500,77500
2022/09/05,77500,77500,77500,77500
2022/09/06,77500,77500,77500,77500
2022/09/07,77500,77500,77500,77500
2022/09/08,77500,77500,77500,77500
2022/09/09,77700,77700,76500,76500
2022/09/12,76500,76500,76500,76500
2022/09/13,76500,76500,76500,76500
2022/09/14,76500,76500,76500,76500
2022/09/15,76500,76500,76500,76500
2022/09/16,75500,75500,75500,75500
2022/09/21,74500,74500,921,74500
2022/11/21,72400,71500,1121,71500
2022/11/22,71000,70900,1122,70900
2022/11/24,71700,71400,1124,71400
2022/11/25,72300,72000,1125,72000
